Location: Bittelbronn
(48.4454°N, 8.5870°E)
Time: 18:16:52
(UTC+00:00)

SJ 16-02 - Pass Details

Date: 23 May 2024
Orbit: 594 x 606 km, 75.0° (Epoch: 16 June)

Event Time Altitude Azimuth Distance (km) Brightness Sun altitude
Exits shadow 01:40:31 18° 177° (S) 1,488 2.8 -14.3°
Maximum altitude 01:43:32 52° 106° (ESE) 745 1.9 -14.1°
Drops below altitude 10° 01:47:43 10° 30° (NNE) 1,939 5.4 -13.7°
Sets 01:50:00 0° 26° (NNE) 2,846 6.6 -13.4°
